owner,sensor,date,latitude,longitude,vertical_datum,sea_water_practical_salinity,qcFlag 
NERRS,ioos:station:NOAA.NERRS:wkbfrwq:1,2017-04-01T00:45:00Z,30.4162,-87.8228,2.19,2.7,1111122 
NERRS,ioos:station:NOAA.NERRS:wkbfrwq:1,2017-04-01T01:45:00Z,30.4162,-87.8228,2.13,2.5,1111122 
NERRS,ioos:station:NOAA.NERRS:wkbfrwq:1,2017-04-01T02:45:00Z,30.4162,-87.8228,2.11,2.4,1111122 
NERRS,ioos:station:NOAA.NERRS:wkbfrwq:1,2017-04-01T03:45:00Z,30.4162,-87.8228,2.08,2.3,1111122 
NERRS,ioos:station:NOAA.NERRS:wkbfrwq:1,2017-04-01T04:45:00Z,30.4162,-87.8228,2.02,2.0,1111122 
NERRS,ioos:station:NOAA.NERRS:wkbfrwq:1,2017-04-01T05:45:00Z,30.4162,-87.8228,1.97,1.9,1111122 
NERRS,ioos:station:NOAA.NERRS:wkbfrwq:1,2017-04-01T06:45:00Z,30.4162,-87.8228,1.96,2.6,1111122 
NERRS,ioos:station:NOAA.NERRS:wkbfrwq:1,2017-04-01T07:45:00Z,30.4162,-87.8228,1.98,3.3,1111122 
NERRS,ioos:station:NOAA.NERRS:wkbfrwq:1,2017-04-01T08:45:00Z,30.4162,-87.8228,2.02,3.3,1111122 
NERRS,ioos:station:NOAA.NERRS:wkbfrwq:1,2017-04-01T09:45:00Z,30.4162,-87.8228,2.07,3.2,1111122 
NERRS,ioos:station:NOAA.NERRS:wkbfrwq:1,2017-04-01T10:45:00Z,30.4162,-87.8228,2.14,3.3,1111122 
NERRS,ioos:station:NOAA.NERRS:wkbfrwq:1,2017-04-01T11:45:00Z,30.4162,-87.8228,2.19,3.4,1111122 
NERRS,ioos:station:NOAA.NERRS:wkbfrwq:1,2017-04-01T12:45:00Z,30.4162,-87.8228,2.22,3.5,1111122 
NERRS,ioos:station:NOAA.NERRS:wkbfrwq:1,2017-04-01T14:45:00Z,30.4162,-87.8228,2.3,3.8,1111122 
NERRS,ioos:station:NOAA.NERRS:wkbfrwq:1,2017-04-01T15:45:00Z,30.4162,-87.8228,2.37,3.6,1111122 
NERRS,ioos:station:NOAA.NERRS:wkbfrwq:1,2017-04-01T16:45:00Z,30.4162,-87.8228,2.41,3.8,1111122 
NERRS,ioos:station:NOAA.NERRS:wkbfrwq:1,2017-04-01T17:45:00Z,30.4162,-87.8228,2.43,3.8,1111122 
NERRS,ioos:station:NOAA.NERRS:wkbfrwq:1,2017-04-01T18:45:00Z,30.4162,-87.8228,2.47,4.0,1111122 
NERRS,ioos:station:NOAA.NERRS:wkbfrwq:1,2017-04-01T19:45:00Z,30.4162,-87.8228,2.46,3.8,1111122 
NERRS,ioos:station:NOAA.NERRS:wkbfrwq:1,2017-04-01T20:45:00Z,30.4162,-87.8228,2.42,3.2,1111122 
NERRS,ioos:station:NOAA.NERRS:wkbfrwq:1,2017-04-01T21:45:00Z,30.4162,-87.8228,2.37,3.2,1111122 
NERRS,ioos:station:NOAA.NERRS:wkbfrwq:1,2017-04-01T22:45:00Z,30.4162,-87.8228,2.31,3.6,1111122 
NERRS,ioos:station:NOAA.NERRS:wkbfrwq:1,2017-04-01T23:45:00Z,30.4162,-87.8228,2.28,2.8,1111122 
NERRS,ioos:station:NOAA.NERRS:wkbfrwq:1,2017-04-02T00:45:00Z,30.4162,-87.8228,2.21,2.5,1111122 
NERRS,ioos:station:NOAA.NERRS:wkbfrwq:1,2017-04-02T01:45:00Z,30.4162,-87.8228,2.14,2.0,1111122 
NERRS,ioos:station:NOAA.NERRS:wkbfrwq:1,2017-04-02T02:45:00Z,30.4162,-87.8228,2.07,2.1,1111122 
NERRS,ioos:station:NOAA.NERRS:wkbfrwq:1,2017-04-02T03:45:00Z,30.4162,-87.8228,2.03,2.0,1111122 
NERRS,ioos:station:NOAA.NERRS:wkbfrwq:1,2017-04-02T04:45:00Z,30.4162,-87.8228,1.98,1.8,1111122 
NERRS,ioos:station:NOAA.NERRS:wkbfrwq:1,2017-04-02T05:45:00Z,30.4162,-87.8228,1.93,1.7,1111122 
NERRS,ioos:station:NOAA.NERRS:wkbfrwq:1,2017-04-02T06:45:00Z,30.4162,-87.8228,1.89,1.6,1111122 
NERRS,ioos:station:NOAA.NERRS:wkbfrwq:1,2017-04-02T07:45:00Z,30.4162,-87.8228,1.87,3.0,1111122 
NERRS,ioos:station:NOAA.NERRS:wkbfrwq:1,2017-04-02T08:45:00Z,30.4162,-87.8228,1.88,3.1,1111122 
NERRS,ioos:station:NOAA.NERRS:wkbfrwq:1,2017-04-02T09:45:00Z,30.4162,-87.8228,1.93,2.9,1111122 
NERRS,ioos:station:NOAA.NERRS:wkbfrwq:1,2017-04-02T10:45:00Z,30.4162,-87.8228,2.0,2.6,1111122 
NERRS,ioos:station:NOAA.NERRS:wkbfrwq:1,2017-04-02T11:45:00Z,30.4162,-87.8228,2.06,2.4,1111122 
NERRS,ioos:station:NOAA.NERRS:wkbfrwq:1,2017-04-02T12:45:00Z,30.4162,-87.8228,2.09,2.9,1111122 
NERRS,ioos:station:NOAA.NERRS:wkbfrwq:1,2017-04-02T13:45:00Z,30.4162,-87.8228,2.17,3.0,1111122 
NERRS,ioos:station:NOAA.NERRS:wkbfrwq:1,2017-04-02T14:45:00Z,30.4162,-87.8228,2.25,3.1,1111122 
NERRS,ioos:station:NOAA.NERRS:wkbfrwq:1,2017-04-02T15:45:00Z,30.4162,-87.8228,2.34,3.1,1111122 
NERRS,ioos:station:NOAA.NERRS:wkbfrwq:1,2017-04-02T16:45:00Z,30.4162,-87.8228,2.34,3.2,1111122 
NERRS,ioos:station:NOAA.NERRS:wkbfrwq:1,2017-04-02T17:45:00Z,30.4162,-87.8228,2.34,3.1,1111122 
NERRS,ioos:station:NOAA.NERRS:wkbfrwq:1,2017-04-02T18:45:00Z,30.4162,-87.8228,2.35,3.2,1111122 
NERRS,ioos:station:NOAA.NERRS:wkbfrwq:1,2017-04-02T19:45:00Z,30.4162,-87.8228,2.37,3.2,1111122 
NERRS,ioos:station:NOAA.NERRS:wkbfrwq:1,2017-04-02T20:45:00Z,30.4162,-87.8228,2.39,3.2,1111122 
NERRS,ioos:station:NOAA.NERRS:wkbfrwq:1,2017-04-02T21:45:00Z,30.4162,-87.8228,2.43,3.3,1111122 
NERRS,ioos:station:NOAA.NERRS:wkbfrwq:1,2017-04-02T22:45:00Z,30.4162,-87.8228,2.39,3.2,1111122 
NERRS,ioos:station:NOAA.NERRS:wkbfrwq:1,2017-04-02T23:45:00Z,30.4162,-87.8228,2.3,2.9,1111122 
NERRS,ioos:station:NOAA.NERRS:wkbfrwq:1,2017-04-03T00:45:00Z,30.4162,-87.8228,2.22,2.3,1111122 
NERRS,ioos:station:NOAA.NERRS:wkbfrwq:1,2017-04-03T01:45:00Z,30.4162,-87.8228,2.22,2.6,1111122 
NERRS,ioos:station:NOAA.NERRS:wkbfrwq:1,2017-04-03T02:45:00Z,30.4162,-87.8228,2.21,2.8,1111122 
NERRS,ioos:station:NOAA.NERRS:wkbfrwq:1,2017-04-03T03:45:00Z,30.4162,-87.8228,2.14,2.1,1111122 
NERRS,ioos:station:NOAA.NERRS:wkbfrwq:1,2017-04-03T05:45:00Z,30.4162,-87.8228,2.03,2.0,1111122 
NERRS,ioos:station:NOAA.NERRS:wkbfrwq:1,2017-04-03T06:45:00Z,30.4162,-87.8228,2.07,2.5,1111122 
NERRS,ioos:station:NOAA.NERRS:wkbfrwq:1,2017-04-03T07:45:00Z,30.4162,-87.8228,2.1,2.4,1111122 
NERRS,ioos:station:NOAA.NERRS:wkbfrwq:1,2017-04-03T08:45:00Z,30.4162,-87.8228,2.12,2.6,1111122 
NERRS,ioos:station:NOAA.NERRS:wkbfrwq:1,2017-04-03T09:45:00Z,30.4162,-87.8228,2.13,2.7,1111122 
NERRS,ioos:station:NOAA.NERRS:wkbfrwq:1,2017-04-03T10:45:00Z,30.4162,-87.8228,2.19,2.9,1111122 
NERRS,ioos:station:NOAA.NERRS:wkbfrwq:1,2017-04-03T12:45:00Z,30.4162,-87.8228,2.31,3.2,1111122 
NERRS,ioos:station:NOAA.NERRS:wkbfrwq:1,2017-04-03T15:45:00Z,30.4162,-87.8228,2.43,2.7,1111122 
NERRS,ioos:station:NOAA.NERRS:wkbfrwq:1,2017-04-03T17:45:00Z,30.4162,-87.8228,2.11,2.1,1111122 
NERRS,ioos:station:NOAA.NERRS:wkbfrwq:1,2017-04-03T18:45:00Z,30.4162,-87.8228,1.99,1.6,1111122 
NERRS,ioos:station:NOAA.NERRS:wkbfrwq:1,2017-04-03T19:45:00Z,30.4162,-87.8228,2.21,2.0,1111122 
NERRS,ioos:station:NOAA.NERRS:wkbfrwq:1,2017-04-03T20:45:00Z,30.4162,-87.8228,2.42,2.8,1111122 
NERRS,ioos:station:NOAA.NERRS:wkbfrwq:1,2017-04-03T21:45:00Z,30.4162,-87.8228,2.42,2.8,1111122 
NERRS,ioos:station:NOAA.NERRS:wkbfrwq:1,2017-04-03T23:45:00Z,30.4162,-87.8228,2.36,2.2,1111122 
NERRS,ioos:station:NOAA.NERRS:wkbfrwq:1,2017-04-04T00:45:00Z,30.4162,-87.8228,2.45,2.5,1111122 
NERRS,ioos:station:NOAA.NERRS:wkbfrwq:1,2017-04-04T01:45:00Z,30.4162,-87.8228,2.45,2.7,1111122 
NERRS,ioos:station:NOAA.NERRS:wkbfrwq:1,2017-04-04T02:45:00Z,30.4162,-87.8228,2.34,2.0,1111122 
NERRS,ioos:station:NOAA.NERRS:wkbfrwq:1,2017-04-04T06:45:00Z,30.4162,-87.8228,2.11,1.3,1111122 
NERRS,ioos:station:NOAA.NERRS:wkbfrwq:1,2017-04-04T07:45:00Z,30.4162,-87.8228,2.06,1.3,1111122 
NERRS,ioos:station:NOAA.NERRS:wkbfrwq:1,2017-04-04T08:45:00Z,30.4162,-87.8228,2.03,1.2,1111122 
NERRS,ioos:station:NOAA.NERRS:wkbfrwq:1,2017-04-04T09:45:00Z,30.4162,-87.8228,2.01,1.1,1111122 
NERRS,ioos:station:NOAA.NERRS:wkbfrwq:1,2017-04-04T10:45:00Z,30.4162,-87.8228,2.01,1.0,1111122 
NERRS,ioos:station:NOAA.NERRS:wkbfrwq:1,2017-04-04T11:45:00Z,30.4162,-87.8228,2.01,0.9,1111122 
NERRS,ioos:station:NOAA.NERRS:wkbfrwq:1,2017-04-04T12:45:00Z,30.4162,-87.8228,2.03,0.9,1111122 
NERRS,ioos:station:NOAA.NERRS:wkbfrwq:1,2017-04-04T13:45:00Z,30.4162,-87.8228,2.11,1.5,1111122 
NERRS,ioos:station:NOAA.NERRS:wkbfrwq:1,2017-04-04T14:45:00Z,30.4162,-87.8228,2.19,1.9,1111122 
NERRS,ioos:station:NOAA.NERRS:wkbfrwq:1,2017-04-04T15:45:00Z,30.4162,-87.8228,2.25,2.1,1111122 
NERRS,ioos:station:NOAA.NERRS:wkbfrwq:1,2017-04-04T16:45:00Z,30.4162,-87.8228,2.29,2.6,1111122 
NERRS,ioos:station:NOAA.NERRS:wkbfrwq:1,2017-04-04T17:45:00Z,30.4162,-87.8228,2.33,2.7,1111122 
NERRS,ioos:station:NOAA.NERRS:wkbfrwq:1,2017-04-04T18:45:00Z,30.4162,-87.8228,2.37,2.7,1111122 
NERRS,ioos:station:NOAA.NERRS:wkbfrwq:1,2017-04-04T19:45:00Z,30.4162,-87.8228,2.36,1.8,1111122 
NERRS,ioos:station:NOAA.NERRS:wkbfrwq:1,2017-04-04T20:45:00Z,30.4162,-87.8228,2.39,2.5,1111122 
NERRS,ioos:station:NOAA.NERRS:wkbfrwq:1,2017-04-04T21:45:00Z,30.4162,-87.8228,2.4,2.4,1111122 
NERRS,ioos:station:NOAA.NERRS:wkbfrwq:1,2017-04-06T13:45:00Z,30.4162,-87.8228,1.89,0.4,1111122 
NERRS,ioos:station:NOAA.NERRS:wkbfrwq:1,2017-04-06T14:45:00Z,30.4162,-87.8228,1.95,0.5,1111122 
NERRS,ioos:station:NOAA.NERRS:wkbfrwq:1,2017-04-06T15:45:00Z,30.4162,-87.8228,2.05,0.6,1111122 
NERRS,ioos:station:NOAA.NERRS:wkbfrwq:1,2017-04-06T16:45:00Z,30.4162,-87.8228,2.08,0.9,1111122 
NERRS,ioos:station:NOAA.NERRS:wkbfrwq:1,2017-04-06T17:45:00Z,30.4162,-87.8228,2.05,0.6,1111122 
NERRS,ioos:station:NOAA.NERRS:wkbfrwq:1,2017-04-06T18:45:00Z,30.4162,-87.8228,2.04,0.5,1111122 
NERRS,ioos:station:NOAA.NERRS:wkbfrwq:1,2017-04-06T19:45:00Z,30.4162,-87.8228,2.03,0.9,1111122 
NERRS,ioos:station:NOAA.NERRS:wkbfrwq:1,2017-04-06T20:45:00Z,30.4162,-87.8228,2.06,0.9,1111122 
NERRS,ioos:station:NOAA.NERRS:wkbfrwq:1,2017-04-06T21:45:00Z,30.4162,-87.8228,2.11,0.8,1111122 
NERRS,ioos:station:NOAA.NERRS:wkbfrwq:1,2017-04-06T22:45:00Z,30.4162,-87.8228,2.15,0.9,1111122 
NERRS,ioos:station:NOAA.NERRS:wkbfrwq:1,2017-04-06T23:45:00Z,30.4162,-87.8228,2.16,0.6,1111122 
NERRS,ioos:station:NOAA.NERRS:wkbfrwq:1,2017-04-07T00:45:00Z,30.4162,-87.8228,2.17,0.6,1111122 
NERRS,ioos:station:NOAA.NERRS:wkbfrwq:1,2017-04-07T01:45:00Z,30.4162,-87.8228,2.15,0.5,1111122 
NERRS,ioos:station:NOAA.NERRS:wkbfrwq:1,2017-04-07T02:45:00Z,30.4162,-87.8228,2.12,0.5,1111122 
NERRS,ioos:station:NOAA.NERRS:wkbfrwq:1,2017-04-07T03:45:00Z,30.4162,-87.8228,2.11,0.5,1111122 
NERRS,ioos:station:NOAA.NERRS:wkbfrwq:1,2017-04-07T04:45:00Z,30.4162,-87.8228,2.09,0.5,1111122 
NERRS,ioos:station:NOAA.NERRS:wkbfrwq:1,2017-04-07T05:45:00Z,30.4162,-87.8228,2.04,0.5,1111122 
NERRS,ioos:station:NOAA.NERRS:wkbfrwq:1,2017-04-07T06:45:00Z,30.4162,-87.8228,1.96,0.4,1111122 
NERRS,ioos:station:NOAA.NERRS:wkbfrwq:1,2017-04-07T07:45:00Z,30.4162,-87.8228,1.89,0.4,1111122 
NERRS,ioos:station:NOAA.NERRS:wkbfrwq:1,2017-04-07T08:45:00Z,30.4162,-87.8228,1.88,0.4,1111122 
NERRS,ioos:station:NOAA.NERRS:wkbfrwq:1,2017-04-07T09:45:00Z,30.4162,-87.8228,1.91,1.3,1111122 
NERRS,ioos:station:NOAA.NERRS:wkbfrwq:1,2017-04-07T10:45:00Z,30.4162,-87.8228,1.93,1.3,1111122 
NERRS,ioos:station:NOAA.NERRS:wkbfrwq:1,2017-04-07T11:45:00Z,30.4162,-87.8228,1.95,0.6,1111122 
NERRS,ioos:station:NOAA.NERRS:wkbfrwq:1,2017-04-07T12:45:00Z,30.4162,-87.8228,1.94,0.5,1111122 
NERRS,ioos:station:NOAA.NERRS:wkbfrwq:1,2017-04-07T13:45:00Z,30.4162,-87.8228,1.95,1.6,1111122 
NERRS,ioos:station:NOAA.NERRS:wkbfrwq:1,2017-04-07T14:45:00Z,30.4162,-87.8228,1.94,0.7,1111122 
NERRS,ioos:station:NOAA.NERRS:wkbfrwq:1,2017-04-07T15:45:00Z,30.4162,-87.8228,1.95,0.5,1111122 
NERRS,ioos:station:NOAA.NERRS:wkbfrwq:1,2017-04-07T16:45:00Z,30.4162,-87.8228,1.95,1.2,1111122 
NERRS,ioos:station:NOAA.NERRS:wkbfrwq:1,2017-04-07T17:45:00Z,30.4162,-87.8228,1.96,1.0,1111122 
NERRS,ioos:station:NOAA.NERRS:wkbfrwq:1,2017-04-07T18:45:00Z,30.4162,-87.8228,1.98,0.9,1111122 
NERRS,ioos:station:NOAA.NERRS:wkbfrwq:1,2017-04-07T19:45:00Z,30.4162,-87.8228,2.0,0.8,1111122 
NERRS,ioos:station:NOAA.NERRS:wkbfrwq:1,2017-04-07T20:45:00Z,30.4162,-87.8228,2.01,0.7,1111122 
NERRS,ioos:station:NOAA.NERRS:wkbfrwq:1,2017-04-07T21:45:00Z,30.4162,-87.8228,2.05,0.9,1111122 
NERRS,ioos:station:NOAA.NERRS:wkbfrwq:1,2017-04-07T22:45:00Z,30.4162,-87.8228,2.08,1.0,1111122 
NERRS,ioos:station:NOAA.NERRS:wkbfrwq:1,2017-04-07T23:45:00Z,30.4162,-87.8228,2.11,0.9,1111122 
NERRS,ioos:station:NOAA.NERRS:wkbfrwq:1,2017-04-08T00:45:00Z,30.4162,-87.8228,2.13,1.5,1111122 
NERRS,ioos:station:NOAA.NERRS:wkbfrwq:1,2017-04-08T01:45:00Z,30.4162,-87.8228,2.12,1.9,1111122 
NERRS,ioos:station:NOAA.NERRS:wkbfrwq:1,2017-04-08T02:45:00Z,30.4162,-87.8228,2.09,2.0,1111122 
NERRS,ioos:station:NOAA.NERRS:wkbfrwq:1,2017-04-08T03:45:00Z,30.4162,-87.8228,2.05,2.2,1111122 
NERRS,ioos:station:NOAA.NERRS:wkbfrwq:1,2017-04-08T04:45:00Z,30.4162,-87.8228,2.04,2.3,1111122 
NERRS,ioos:station:NOAA.NERRS:wkbfrwq:1,2017-04-08T05:45:00Z,30.4162,-87.8228,2.01,2.6,1111122 
NERRS,ioos:station:NOAA.NERRS:wkbfrwq:1,2017-04-08T06:45:00Z,30.4162,-87.8228,1.99,1.8,1111122 
NERRS,ioos:station:NOAA.NERRS:wkbfrwq:1,2017-04-08T07:45:00Z,30.4162,-87.8228,1.93,1.2,1111122 
NERRS,ioos:station:NOAA.NERRS:wkbfrwq:1,2017-04-08T08:45:00Z,30.4162,-87.8228,1.88,0.7,1111122 
NERRS,ioos:station:NOAA.NERRS:wkbfrwq:1,2017-04-08T10:45:00Z,30.4162,-87.8228,1.85,0.8,1111122 
NERRS,ioos:station:NOAA.NERRS:wkbfrwq:1,2017-04-08T12:45:00Z,30.4162,-87.8228,1.93,1.8,1111122 
NERRS,ioos:station:NOAA.NERRS:wkbfrwq:1,2017-04-08T13:45:00Z,30.4162,-87.8228,1.98,1.6,1111122 
NERRS,ioos:station:NOAA.NERRS:wkbfrwq:1,2017-04-08T15:45:00Z,30.4162,-87.8228,2.05,1.7,1111122 
NERRS,ioos:station:NOAA.NERRS:wkbfrwq:1,2017-04-08T16:45:00Z,30.4162,-87.8228,2.09,1.9,1111122 
NERRS,ioos:station:NOAA.NERRS:wkbfrwq:1,2017-04-08T17:45:00Z,30.4162,-87.8228,2.14,1.8,1111122 
NERRS,ioos:station:NOAA.NERRS:wkbfrwq:1,2017-04-08T18:45:00Z,30.4162,-87.8228,2.16,1.7,1111122 
NERRS,ioos:station:NOAA.NERRS:wkbfrwq:1,2017-04-08T19:45:00Z,30.4162,-87.8228,2.15,1.2,1111122 
NERRS,ioos:station:NOAA.NERRS:wkbfrwq:1,2017-04-08T20:45:00Z,30.4162,-87.8228,2.1,1.4,1111122 
NERRS,ioos:station:NOAA.NERRS:wkbfrwq:1,2017-04-08T21:45:00Z,30.4162,-87.8228,2.09,1.6,1111122 
NERRS,ioos:station:NOAA.NERRS:wkbfrwq:1,2017-04-08T22:45:00Z,30.4162,-87.8228,2.08,1.6,1111122 
NERRS,ioos:station:NOAA.NERRS:wkbfrwq:1,2017-04-08T23:45:00Z,30.4162,-87.8228,2.06,1.5,1111122 
NERRS,ioos:station:NOAA.NERRS:wkbfrwq:1,2017-04-09T00:45:00Z,30.4162,-87.8228,2.09,1.6,1111122 
NERRS,ioos:station:NOAA.NERRS:wkbfrwq:1,2017-04-09T01:45:00Z,30.4162,-87.8228,2.14,1.6,1111122 
NERRS,ioos:station:NOAA.NERRS:wkbfrwq:1,2017-04-09T02:45:00Z,30.4162,-87.8228,2.18,1.7,1111122 
NERRS,ioos:station:NOAA.NERRS:wkbfrwq:1,2017-04-09T03:45:00Z,30.4162,-87.8228,2.16,1.2,1111122 
NERRS,ioos:station:NOAA.NERRS:wkbfrwq:1,2017-04-09T04:45:00Z,30.4162,-87.8228,2.15,1.6,1111122 
NERRS,ioos:station:NOAA.NERRS:wkbfrwq:1,2017-04-09T05:45:00Z,30.4162,-87.8228,2.15,1.9,1111122 
NERRS,ioos:station:NOAA.NERRS:wkbfrwq:1,2017-04-09T06:45:00Z,30.4162,-87.8228,2.17,1.9,1111122 
NERRS,ioos:station:NOAA.NERRS:wkbfrwq:1,2017-04-09T07:45:00Z,30.4162,-87.8228,2.14,1.1,1111122 
NERRS,ioos:station:NOAA.NERRS:wkbfrwq:1,2017-04-09T08:45:00Z,30.4162,-87.8228,2.07,1.2,1111122 
NERRS,ioos:station:NOAA.NERRS:wkbfrwq:1,2017-04-09T09:45:00Z,30.4162,-87.8228,2.02,1.3,1111122 
NERRS,ioos:station:NOAA.NERRS:wkbfrwq:1,2017-04-09T10:45:00Z,30.4162,-87.8228,2.0,1.5,1111122 
NERRS,ioos:station:NOAA.NERRS:wkbfrwq:1,2017-04-09T11:45:00Z,30.4162,-87.8228,2.02,1.6,1111122 
NERRS,ioos:station:NOAA.NERRS:wkbfrwq:1,2017-04-09T12:45:00Z,30.4162,-87.8228,2.05,1.6,1111122 
NERRS,ioos:station:NOAA.NERRS:wkbfrwq:1,2017-04-09T13:45:00Z,30.4162,-87.8228,2.06,1.7,1111122 
NERRS,ioos:station:NOAA.NERRS:wkbfrwq:1,2017-04-09T14:45:00Z,30.4162,-87.8228,2.07,1.8,1111122 
NERRS,ioos:station:NOAA.NERRS:wkbfrwq:1,2017-04-09T15:45:00Z,30.4162,-87.8228,2.11,2.0,1111122 
NERRS,ioos:station:NOAA.NERRS:wkbfrwq:1,2017-04-09T16:45:00Z,30.4162,-87.8228,2.16,1.8,1111122 
NERRS,ioos:station:NOAA.NERRS:wkbfrwq:1,2017-04-09T17:45:00Z,30.4162,-87.8228,2.2,1.9,1111122 
NERRS,ioos:station:NOAA.NERRS:wkbfrwq:1,2017-04-09T18:45:00Z,30.4162,-87.8228,2.19,1.7,1111122 
NERRS,ioos:station:NOAA.NERRS:wkbfrwq:1,2017-04-09T19:45:00Z,30.4162,-87.8228,2.2,1.9,1111122 
NERRS,ioos:station:NOAA.NERRS:wkbfrwq:1,2017-04-09T20:45:00Z,30.4162,-87.8228,2.17,1.6,1111122 
NERRS,ioos:station:NOAA.NERRS:wkbfrwq:1,2017-04-09T21:45:00Z,30.4162,-87.8228,2.14,1.6,1111122 
NERRS,ioos:station:NOAA.NERRS:wkbfrwq:1,2017-04-09T22:45:00Z,30.4162,-87.8228,2.12,1.4,1111122 
NERRS,ioos:station:NOAA.NERRS:wkbfrwq:1,2017-04-09T23:45:00Z,30.4162,-87.8228,2.11,1.7,1111122 
NERRS,ioos:station:NOAA.NERRS:wkbfrwq:1,2017-04-10T00:45:00Z,30.4162,-87.8228,2.12,1.4,1111122 
NERRS,ioos:station:NOAA.NERRS:wkbfrwq:1,2017-04-10T01:45:00Z,30.4162,-87.8228,2.14,1.6,1111122 
NERRS,ioos:station:NOAA.NERRS:wkbfrwq:1,2017-04-10T02:45:00Z,30.4162,-87.8228,2.19,1.5,1111122 
NERRS,ioos:station:NOAA.NERRS:wkbfrwq:1,2017-04-10T03:45:00Z,30.4162,-87.8228,2.23,1.5,1111122 
NERRS,ioos:station:NOAA.NERRS:wkbfrwq:1,2017-04-10T04:45:00Z,30.4162,-87.8228,2.26,1.7,1111122 
NERRS,ioos:station:NOAA.NERRS:wkbfrwq:1,2017-04-10T05:45:00Z,30.4162,-87.8228,2.3,2.0,1111122 
NERRS,ioos:station:NOAA.NERRS:wkbfrwq:1,2017-04-10T06:45:00Z,30.4162,-87.8228,2.33,1.7,1111122 
NERRS,ioos:station:NOAA.NERRS:wkbfrwq:1,2017-04-10T07:45:00Z,30.4162,-87.8228,2.29,1.0,1111122 
NERRS,ioos:station:NOAA.NERRS:wkbfrwq:1,2017-04-10T08:45:00Z,30.4162,-87.8228,2.24,1.3,1111122 
NERRS,ioos:station:NOAA.NERRS:wkbfrwq:1,2017-04-10T09:45:00Z,30.4162,-87.8228,2.2,1.5,1111122 
NERRS,ioos:station:NOAA.NERRS:wkbfrwq:1,2017-04-10T10:45:00Z,30.4162,-87.8228,2.18,1.4,1111122 
NERRS,ioos:station:NOAA.NERRS:wkbfrwq:1,2017-04-10T11:45:00Z,30.4162,-87.8228,2.16,0.9,1111122 
NERRS,ioos:station:NOAA.NERRS:wkbfrwq:1,2017-04-10T12:45:00Z,30.4162,-87.8228,2.17,1.7,1111122 
NERRS,ioos:station:NOAA.NERRS:wkbfrwq:1,2017-04-10T13:45:00Z,30.4162,-87.8228,2.22,1.9,1111122 
NERRS,ioos:station:NOAA.NERRS:wkbfrwq:1,2017-04-10T14:45:00Z,30.4162,-87.8228,2.25,1.7,1111122 
NERRS,ioos:station:NOAA.NERRS:wkbfrwq:1,2017-04-10T15:45:00Z,30.4162,-87.8228,2.3,1.7,1111122 
NERRS,ioos:station:NOAA.NERRS:wkbfrwq:1,2017-04-10T16:45:00Z,30.4162,-87.8228,2.3,1.7,1111122 
NERRS,ioos:station:NOAA.NERRS:wkbfrwq:1,2017-04-10T17:45:00Z,30.4162,-87.8228,2.3,1.8,1111122 
NERRS,ioos:station:NOAA.NERRS:wkbfrwq:1,2017-04-10T18:45:00Z,30.4162,-87.8228,2.29,1.8,1111122 
NERRS,ioos:station:NOAA.NERRS:wkbfrwq:1,2017-04-10T19:45:00Z,30.4162,-87.8228,2.24,1.5,1111122 
NERRS,ioos:station:NOAA.NERRS:wkbfrwq:1,2017-04-10T20:45:00Z,30.4162,-87.8228,2.2,1.6,1111122 
NERRS,ioos:station:NOAA.NERRS:wkbfrwq:1,2017-04-10T21:45:00Z,30.4162,-87.8228,2.13,1.5,1111122 
NERRS,ioos:station:NOAA.NERRS:wkbfrwq:1,2017-04-10T22:45:00Z,30.4162,-87.8228,2.08,0.9,1111122 
NERRS,ioos:station:NOAA.NERRS:wkbfrwq:1,2017-04-10T23:45:00Z,30.4162,-87.8228,2.06,0.9,1111122 
NERRS,ioos:station:NOAA.NERRS:wkbfrwq:1,2017-04-11T00:45:00Z,30.4162,-87.8228,2.08,1.6,1111122 
NERRS,ioos:station:NOAA.NERRS:wkbfrwq:1,2017-04-11T01:45:00Z,30.4162,-87.8228,2.1,1.3,1111122 
NERRS,ioos:station:NOAA.NERRS:wkbfrwq:1,2017-04-11T02:45:00Z,30.4162,-87.8228,2.12,1.4,1111122 
NERRS,ioos:station:NOAA.NERRS:wkbfrwq:1,2017-04-11T03:45:00Z,30.4162,-87.8228,2.17,1.4,1111122 
NERRS,ioos:station:NOAA.NERRS:wkbfrwq:1,2017-04-11T04:45:00Z,30.4162,-87.8228,2.24,1.3,1111122 
NERRS,ioos:station:NOAA.NERRS:wkbfrwq:1,2017-04-11T05:45:00Z,30.4162,-87.8228,2.26,1.3,1111122 
NERRS,ioos:station:NOAA.NERRS:wkbfrwq:1,2017-04-11T06:45:00Z,30.4162,-87.8228,2.23,0.9,1111122 
NERRS,ioos:station:NOAA.NERRS:wkbfrwq:1,2017-04-11T07:45:00Z,30.4162,-87.8228,2.23,1.3,1111122 
NERRS,ioos:station:NOAA.NERRS:wkbfrwq:1,2017-04-11T08:45:00Z,30.4162,-87.8228,2.23,1.7,1111122 
NERRS,ioos:station:NOAA.NERRS:wkbfrwq:1,2017-04-11T09:45:00Z,30.4162,-87.8228,2.2,1.2,1111122 
NERRS,ioos:station:NOAA.NERRS:wkbfrwq:1,2017-04-11T10:45:00Z,30.4162,-87.8228,2.16,1.3,1111122 
NERRS,ioos:station:NOAA.NERRS:wkbfrwq:1,2017-04-11T11:45:00Z,30.4162,-87.8228,2.14,1.4,1111122 
NERRS,ioos:station:NOAA.NERRS:wkbfrwq:1,2017-04-11T12:45:00Z,30.4162,-87.8228,2.18,1.7,1111122 
NERRS,ioos:station:NOAA.NERRS:wkbfrwq:1,2017-04-11T13:45:00Z,30.4162,-87.8228,2.26,1.5,1111122 
NERRS,ioos:station:NOAA.NERRS:wkbfrwq:1,2017-04-11T14:45:00Z,30.4162,-87.8228,2.35,1.6,1111122 
NERRS,ioos:station:NOAA.NERRS:wkbfrwq:1,2017-04-11T15:45:00Z,30.4162,-87.8228,2.4,1.6,1111122 
NERRS,ioos:station:NOAA.NERRS:wkbfrwq:1,2017-04-11T16:45:00Z,30.4162,-87.8228,2.39,1.6,1111122 
NERRS,ioos:station:NOAA.NERRS:wkbfrwq:1,2017-04-11T17:45:00Z,30.4162,-87.8228,2.38,1.5,1111122 
NERRS,ioos:station:NOAA.NERRS:wkbfrwq:1,2017-04-11T18:45:00Z,30.4162,-87.8228,2.39,1.7,1111122 
NERRS,ioos:station:NOAA.NERRS:wkbfrwq:1,2017-04-11T19:45:00Z,30.4162,-87.8228,2.36,1.6,1111122 
NERRS,ioos:station:NOAA.NERRS:wkbfrwq:1,2017-04-11T20:45:00Z,30.4162,-87.8228,2.3,1.4,1111122 
NERRS,ioos:station:NOAA.NERRS:wkbfrwq:1,2017-04-11T21:45:00Z,30.4162,-87.8228,2.24,1.3,1111122 
NERRS,ioos:station:NOAA.NERRS:wkbfrwq:1,2017-04-11T22:45:00Z,30.4162,-87.8228,2.19,1.4,1111122 
NERRS,ioos:station:NOAA.NERRS:wkbfrwq:1,2017-04-11T23:45:00Z,30.4162,-87.8228,2.16,1.0,1111122 
NERRS,ioos:station:NOAA.NERRS:wkbfrwq:1,2017-04-12T00:45:00Z,30.4162,-87.8228,2.12,1.2,1111122 
NERRS,ioos:station:NOAA.NERRS:wkbfrwq:1,2017-04-12T01:45:00Z,30.4162,-87.8228,2.13,1.4,1111122 
NERRS,ioos:station:NOAA.NERRS:wkbfrwq:1,2017-04-12T02:45:00Z,30.4162,-87.8228,2.16,1.4,1111122 
NERRS,ioos:station:NOAA.NERRS:wkbfrwq:1,2017-04-12T03:45:00Z,30.4162,-87.8228,2.17,1.2,1111122 
NERRS,ioos:station:NOAA.NERRS:wkbfrwq:1,2017-04-12T04:45:00Z,30.4162,-87.8228,2.16,1.1,1111122 
NERRS,ioos:station:NOAA.NERRS:wkbfrwq:1,2017-04-12T05:45:00Z,30.4162,-87.8228,2.16,1.3,1111122 
NERRS,ioos:station:NOAA.NERRS:wkbfrwq:1,2017-04-12T06:45:00Z,30.4162,-87.8228,2.18,1.5,1111122 
NERRS,ioos:station:NOAA.NERRS:wkbfrwq:1,2017-04-12T07:45:00Z,30.4162,-87.8228,2.22,1.4,1111122 
NERRS,ioos:station:NOAA.NERRS:wkbfrwq:1,2017-04-12T08:45:00Z,30.4162,-87.8228,2.23,1.4,1111122 
NERRS,ioos:station:NOAA.NERRS:wkbfrwq:1,2017-04-12T11:45:00Z,30.4162,-87.8228,2.23,1.5,1111122 
NERRS,ioos:station:NOAA.NERRS:wkbfrwq:1,2017-04-12T13:45:00Z,30.4162,-87.8228,2.23,1.7,1111122 
NERRS,ioos:station:NOAA.NERRS:wkbfrwq:1,2017-04-12T14:45:00Z,30.4162,-87.8228,2.3,1.7,1111122 
NERRS,ioos:station:NOAA.NERRS:wkbfrwq:1,2017-04-12T15:45:00Z,30.4162,-87.8228,2.42,1.2,1111122 
NERRS,ioos:station:NOAA.NERRS:wkbfrwq:1,2017-04-12T16:45:00Z,30.4162,-87.8228,2.45,1.5,1111122 
NERRS,ioos:station:NOAA.NERRS:wkbfrwq:1,2017-04-12T17:45:00Z,30.4162,-87.8228,2.44,1.4,1111122 
NERRS,ioos:station:NOAA.NERRS:wkbfrwq:1,2017-04-12T18:45:00Z,30.4162,-87.8228,2.41,1.4,1111122 
NERRS,ioos:station:NOAA.NERRS:wkbfrwq:1,2017-04-12T19:45:00Z,30.4162,-87.8228,2.37,1.4,1111122 
NERRS,ioos:station:NOAA.NERRS:wkbfrwq:1,2017-04-12T20:45:00Z,30.4162,-87.8228,2.33,1.4,1111122 
NERRS,ioos:station:NOAA.NERRS:wkbfrwq:1,2017-04-12T21:45:00Z,30.4162,-87.8228,2.28,1.3,1111122 
NERRS,ioos:station:NOAA.NERRS:wkbfrwq:1,2017-04-12T22:45:00Z,30.4162,-87.8228,2.2,1.3,1111122 
NERRS,ioos:station:NOAA.NERRS:wkbfrwq:1,2017-04-12T23:45:00Z,30.4162,-87.8228,2.15,1.3,1111122 
NERRS,ioos:station:NOAA.NERRS:wkbfrwq:1,2017-04-13T00:45:00Z,30.4162,-87.8228,2.11,0.9,1111122 
NERRS,ioos:station:NOAA.NERRS:wkbfrwq:1,2017-04-13T01:45:00Z,30.4162,-87.8228,2.08,0.9,1111122 
NERRS,ioos:station:NOAA.NERRS:wkbfrwq:1,2017-04-13T02:45:00Z,30.4162,-87.8228,2.07,1.0,1111122 
NERRS,ioos:station:NOAA.NERRS:wkbfrwq:1,2017-04-13T03:45:00Z,30.4162,-87.8228,2.08,1.3,1111122 
NERRS,ioos:station:NOAA.NERRS:wkbfrwq:1,2017-04-13T04:45:00Z,30.4162,-87.8228,2.12,1.3,1111122 
NERRS,ioos:station:NOAA.NERRS:wkbfrwq:1,2017-04-13T05:45:00Z,30.4162,-87.8228,2.16,1.2,1111122 
NERRS,ioos:station:NOAA.NERRS:wkbfrwq:1,2017-04-13T06:45:00Z,30.4162,-87.8228,2.17,1.3,1111122 
NERRS,ioos:station:NOAA.NERRS:wkbfrwq:1,2017-04-13T07:45:00Z,30.4162,-87.8228,2.18,1.2,1111122 
NERRS,ioos:station:NOAA.NERRS:wkbfrwq:1,2017-04-13T08:45:00Z,30.4162,-87.8228,2.22,1.3,1111122 
NERRS,ioos:station:NOAA.NERRS:wkbfrwq:1,2017-04-13T09:45:00Z,30.4162,-87.8228,2.24,1.2,1111122 
NERRS,ioos:station:NOAA.NERRS:wkbfrwq:1,2017-04-13T10:45:00Z,30.4162,-87.8228,2.22,1.2,1111122 
NERRS,ioos:station:NOAA.NERRS:wkbfrwq:1,2017-04-13T11:45:00Z,30.4162,-87.8228,2.21,1.3,1111122 
NERRS,ioos:station:NOAA.NERRS:wkbfrwq:1,2017-04-13T12:45:00Z,30.4162,-87.8228,2.23,1.4,1111122 
NERRS,ioos:station:NOAA.NERRS:wkbfrwq:1,2017-04-13T13:45:00Z,30.4162,-87.8228,2.28,1.4,1111122 
NERRS,ioos:station:NOAA.NERRS:wkbfrwq:1,2017-04-13T14:45:00Z,30.4162,-87.8228,2.32,1.3,1111122 
NERRS,ioos:station:NOAA.NERRS:wkbfrwq:1,2017-04-13T15:45:00Z,30.4162,-87.8228,2.35,1.3,1111122 